Submittal Forms
Current Contests
Recent Contests

Club Activity Tracker - Chiltern DX Club (from club selection on form)

Recent postings for the selected club or group are listed below. Other than the call used, all calls listed are only those associated with the club or group. Click on a call to see the details of the posting.
Status Key: new=new posting, update=update prior posting, move=change club/group, delete=delete prior posting.

Sort by   for past

TimestampCallContestClassPowerScoreStatus
2021-05-13 04:07:20SM6F(SM6CUK)CWopsTSingle OpLP432new6421
2021-05-12 20:17:06SM6F(SM6CUK)CWopsTSingle OpLP4,661new6420
2021-05-12 20:04:48M0NGNCWopsTSingle OpLP841new6420
2021-05-12 20:03:14GW0KRLCWopsTSingle OpLP1,485new6420
2021-05-12 20:02:49OZ3SMCWopsTSingle OpHP6,745new6420
2021-05-12 14:04:11SM6F(SM6CUK)CWopsTSingle OpLP5,041new6419
2021-05-12 14:03:11GW0KRLCWopsTSingle OpLP960new6419
2021-05-12 14:02:28OZ3SMCWopsTSingle OpHP3,835new6419
2021-05-11 10:21:43GW0A(GW4SKA)Volta RTTYSOSB/40HP79,015,280new6411
2021-05-09 16:11:36OZ3SMCQ-MSOABCWHP223,951new6412
 
2021-05-05 20:03:06GW0KRLCWopsTSingle OpLP1,395new6403
2021-05-05 20:02:50OZ3SMCWopsTSingle OpHP4,992new6403
2021-05-05 19:39:27G3WZDCWopsTSingle OpHP1,024new6403
2021-05-05 14:20:42G3WZDCWopsTSingle OpHP3,721new6402
2021-05-05 14:03:15GW0KRLCWopsTSingle OpLP1,188new6402
2021-05-05 14:02:24OZ3SMCWopsTSingle OpHP4,964new6402
2021-05-03 16:56:56G4DBWARISO CWLP434,010new6393
2021-05-02 16:02:30OZ3SMARISO CWHP558,110new6393
2021-05-02 13:23:34MD2C(@MD0CCE)ARISO CWHP605,124new6393
2021-04-30 21:14:01G3WZDKRC SSTSingle OpHP972new6391
 
2021-04-29 03:58:06SM6F(SM6CUK)CWopsTSingle OpLP380new6386
2021-04-28 20:21:21SM6F(SM6CUK)CWopsTSingle OpLP5,200new6385
2021-04-28 20:03:36GW0KRLCWopsTSingle OpLP1,716new6385
2021-04-28 20:02:54OZ3SMCWopsTSingle OpHP5,590new6385
2021-04-28 19:33:24G3WZDCWopsTSingle OpHP484new6385
2021-04-28 14:05:37GW0KRLCWopsTSingle OpLP864new6384
2021-04-28 14:05:30SM6F(SM6CUK)CWopsTSingle OpLP3,654new6384
2021-04-28 14:04:45M0NGNCWopsTSingle OpLP1,296new6384
2021-04-28 14:03:59G3WZDCWopsTSingle OpHP1,480new6384
2021-04-28 14:02:04OZ3SMCWopsTSingle OpHP3,480new6384
 
2021-04-25 13:35:07OZ3SMHelvetiaSO CWHP192,675new6373
2021-04-23 21:15:23G3WZDKRC SSTSingle OpHP483new6371
2021-04-22 03:58:27SM6F(SM6CUK)CWopsTSingle OpLP255new6366
2021-04-21 20:10:37SM6F(SM6CUK)CWopsTSingle OpLP3,519new6365
2021-04-21 20:05:18G3WZDCWopsTSingle OpHP1,677new6365
2021-04-21 20:02:49GW0KRLCWopsTSingle OpLP2,132new6365
2021-04-21 20:02:30OZ3SMCWopsTSingle OpHP5,576new6365
2021-04-21 18:47:41G3WZDCWopsTSingle OpHP600new6364
2021-04-21 14:15:35M0NGNCWopsTSingle OpLP1,089new6364
2021-04-21 14:07:45SM6F(SM6CUK)CWopsTSingle OpLP3,355new6364
 
2021-04-21 14:02:50GW0KRLCWopsTSingle OpLP896new6364
2021-04-21 14:02:01OZ3SMCWopsTSingle OpHP3,944new6364
2021-04-20 10:17:18G4DBWCQMM DXSOABLP110,660new6356
2021-04-16 21:06:13G3WZDKRC SSTSingle OpHP540new6351
2021-04-15 04:05:25SM6F(SM6CUK)CWopsTSingle OpLP576new